Time,TemperatureF,DewpointF,PressureIn,WindDirection,WindDirectionDegrees,WindSpeedMPH,WindSpeedGustMPH,Humidity,HourlyPrecipIn,Conditions,Clouds,dailyrainin,SoftwareType,DateUTC
2013-10-02 00:02:00,56.7,40.7,29.95,WNW,289,1.0,3.0,55,0.00,,,0.00,WeatherDisplay:10.37,2013-10-02 05:02:00,
2013-10-02 00:12:00,55.9,40.4,29.95,West,280,0.0,3.0,56,0.00,,,0.00,WeatherDisplay:10.37,2013-10-02 05:12:00,
2013-10-02 00:22:00,55.2,41.1,29.95,WNW,285,1.0,5.0,59,0.00,,,0.00,WeatherDisplay:10.37,2013-10-02 05:22:00,
2013-10-02 00:32:00,54.5,41.3,29.95,WNW,282,1.0,4.0,61,0.00,,,0.00,WeatherDisplay:10.37,2013-10-02 05:32:00,
2013-10-02 00:42:00,53.6,41.3,29.95,WNW,285,1.0,5.0,63,0.00,,,0.00,WeatherDisplay:10.37,2013-10-02 05:42:00,
2013-10-02 00:52:00,52.6,41.1,29.98,WNW,299,0.0,2.0,65,0.00,,,0.00,WeatherDisplay:10.37,2013-10-02 05:52:00,
2013-10-02 01:02:00,51.6,41.0,29.98,SSW,210,2.0,3.0,67,0.00,,,0.00,WeatherDisplay:10.37,2013-10-02 06:02:00,
2013-10-02 01:12:00,51.0,40.4,29.98,South,190,0.0,2.0,67,0.00,,,0.00,WeatherDisplay:10.37,2013-10-02 06:12:00,
2013-10-02 01:22:00,50.4,40.3,29.98,South,190,0.0,0.0,68,0.00,,,0.00,WeatherDisplay:10.37,2013-10-02 06:22:00,
2013-10-02 01:32:00,49.8,40.4,29.98,South,190,0.0,0.0,70,0.00,,,0.00,WeatherDisplay:10.37,2013-10-02 06:32:00,
2013-10-02 01:42:00,49.3,40.3,29.98,South,190,0.0,0.0,71,0.00,,,0.00,WeatherDisplay:10.37,2013-10-02 06:42:00,
2013-10-02 01:52:00,48.7,40.1,29.98,South,190,0.0,0.0,72,0.00,,,0.00,WeatherDisplay:10.37,2013-10-02 06:52:00,
2013-10-02 02:02:00,48.4,40.1,29.98,NNW,340,0.0,2.0,73,0.00,,,0.00,WeatherDisplay:10.37,2013-10-02 07:02:00,
2013-10-02 02:12:00,48.0,40.4,29.98,West,280,1.0,2.0,75,0.00,,,0.00,WeatherDisplay:10.37,2013-10-02 07:12:00,
2013-10-02 02:22:00,47.4,40.2,30.01,South,190,1.0,3.0,76,0.00,,,0.00,WeatherDisplay:10.37,2013-10-02 07:22:00,
2013-10-02 02:32:00,46.9,40.4,30.01,South,190,1.0,2.0,78,0.00,,,0.00,WeatherDisplay:10.37,2013-10-02 07:32:00,
2013-10-02 02:42:00,46.6,40.4,30.01,South,190,0.0,2.0,79,0.00,,,0.00,WeatherDisplay:10.37,2013-10-02 07:42:00,
2013-10-02 02:52:00,46.4,40.6,30.01,South,190,0.0,3.0,80,0.00,,,0.00,WeatherDisplay:10.37,2013-10-02 07:52:00,
2013-10-02 03:02:00,46.1,40.6,30.01,South,190,0.0,0.0,81,0.00,,,0.00,WeatherDisplay:10.37,2013-10-02 08:02:00,
2013-10-02 03:12:00,45.7,40.2,30.01,South,190,0.0,0.0,81,0.00,,,0.00,WeatherDisplay:10.37,2013-10-02 08:12:00,
2013-10-02 03:22:00,45.5,40.3,30.01,South,190,0.0,0.0,82,0.00,,,0.00,WeatherDisplay:10.37,2013-10-02 08:22:00,
2013-10-02 03:32:00,45.1,40.0,30.01,South,190,0.0,0.0,82,0.00,,,0.00,WeatherDisplay:10.37,2013-10-02 08:32:00,
2013-10-02 03:42:00,44.8,40.2,30.01,South,190,1.0,2.0,84,0.00,,,0.00,WeatherDisplay:10.37,2013-10-02 08:42:00,
2013-10-02 03:52:00,44.6,40.4,30.01,South,190,0.0,2.0,85,0.00,,,0.00,WeatherDisplay:10.37,2013-10-02 08:52:00,
2013-10-02 04:02:00,44.4,40.2,30.04,South,190,0.0,0.0,85,0.00,,,0.00,WeatherDisplay:10.37,2013-10-02 09:02:00,
2013-10-02 04:12:00,43.9,39.7,30.03,South,190,2.0,2.0,85,0.00,,,0.00,WeatherDisplay:10.37,2013-10-02 09:12:00,
2013-10-02 04:22:00,43.5,39.6,30.01,South,190,1.0,3.0,86,0.00,,,0.00,WeatherDisplay:10.37,2013-10-02 09:22:00,
2013-10-02 04:32:00,43.2,39.6,30.04,South,190,0.0,3.0,87,0.00,,,0.00,WeatherDisplay:10.37,2013-10-02 09:32:00,
2013-10-02 04:42:00,43.2,39.8,30.04,SSW,199,1.0,2.0,88,0.00,,,0.00,WeatherDisplay:10.37,2013-10-02 09:42:00,
2013-10-02 04:52:00,42.9,39.9,30.04,SE,139,2.0,3.0,89,0.00,,,0.00,WeatherDisplay:10.37,2013-10-02 09:52:00,
2013-10-02 05:02:00,42.8,39.8,30.04,SSW,213,0.0,3.0,89,0.00,,,0.00,WeatherDisplay:10.37,2013-10-02 10:02:00,
2013-10-02 05:12:00,42.4,39.4,30.04,NNW,333,0.0,3.0,89,0.00,,,0.00,WeatherDisplay:10.37,2013-10-02 10:12:00,
2013-10-02 05:22:00,42.3,39.8,30.04,SSE,158,0.0,3.0,91,0.00,,,0.00,WeatherDisplay:10.37,2013-10-02 10:22:00,
2013-10-02 05:32:00,42.1,39.6,30.04,South,178,0.0,2.0,91,0.00,,,0.00,WeatherDisplay:10.37,2013-10-02 10:32:00,
2013-10-02 05:42:00,41.9,39.7,30.04,SSW,210,2.0,3.0,92,0.00,,,0.00,WeatherDisplay:10.37,2013-10-02 10:42:00,
2013-10-02 05:52:00,41.9,40.0,30.04,South,190,0.0,2.0,93,0.00,,,0.00,WeatherDisplay:10.37,2013-10-02 10:52:00,
2013-10-02 06:02:00,41.9,40.0,30.04,South,190,0.0,1.0,93,0.00,,,0.00,WeatherDisplay:10.37,2013-10-02 11:02:00,
2013-10-02 06:12:00,41.9,40.0,30.04,South,190,0.0,0.0,93,0.00,,,0.00,WeatherDisplay:10.37,2013-10-02 11:12:00,
2013-10-02 06:22:00,41.9,40.3,30.07,South,190,2.0,3.0,94,0.00,,,0.00,WeatherDisplay:10.37,2013-10-02 11:22:00,
2013-10-02 06:32:00,41.5,39.7,30.07,SSW,213,0.0,3.0,93,0.00,,,0.00,WeatherDisplay:10.37,2013-10-02 11:32:00,
2013-10-02 06:42:00,41.5,39.6,30.07,SW,236,0.0,0.0,93,0.00,,,0.00,WeatherDisplay:10.37,2013-10-02 11:42:00,
2013-10-02 06:52:00,41.0,38.5,30.07,NNW,332,2.0,3.0,91,0.00,,,0.00,WeatherDisplay:10.37,2013-10-02 11:52:00,
2013-10-02 07:02:00,40.8,39.2,30.07,NW,312,0.0,3.0,94,0.00,,,0.00,WeatherDisplay:10.37,2013-10-02 12:02:00,
2013-10-02 07:12:00,40.8,39.2,30.07,South,190,0.0,2.0,94,0.00,,,0.00,WeatherDisplay:10.37,2013-10-02 12:12:00,
2013-10-02 07:22:00,41.0,39.7,30.07,SW,227,0.0,0.0,95,0.00,,,0.00,WeatherDisplay:10.37,2013-10-02 12:22:00,
2013-10-02 07:32:00,41.4,40.3,30.07,SW,236,0.0,2.0,96,0.00,,,0.00,WeatherDisplay:10.37,2013-10-02 12:32:00,
2013-10-02 07:42:00,41.9,41.1,30.07,SW,236,0.0,0.0,97,0.00,,,0.00,WeatherDisplay:10.37,2013-10-02 12:42:00,
2013-10-02 07:52:00,42.6,42.1,30.07,SW,236,0.0,0.0,98,0.00,,,0.00,WeatherDisplay:10.37,2013-10-02 12:52:00,
2013-10-02 08:02:00,43.3,42.8,30.07,SSW,199,1.0,2.0,98,0.00,,,0.00,WeatherDisplay:10.37,2013-10-02 13:02:00,
2013-10-02 08:12:00,44.4,43.8,30.07,South,190,0.0,1.0,98,0.00,,,0.00,WeatherDisplay:10.37,2013-10-02 13:12:00,
2013-10-02 08:22:00,45.7,45.2,30.07,South,190,1.0,2.0,98,0.00,,,0.00,WeatherDisplay:10.37,2013-10-02 13:22:00,
2013-10-02 08:32:00,48.0,48.0,30.07,South,190,0.0,3.0,100,0.00,,,0.00,WeatherDisplay:10.37,2013-10-02 13:32:00,
2013-10-02 08:42:00,49.5,49.5,30.07,South,190,1.0,2.0,100,0.00,,,0.00,WeatherDisplay:10.37,2013-10-02 13:42:00,
2013-10-02 08:52:00,50.6,50.0,30.10,WSW,238,1.0,3.0,98,0.00,,,0.00,WeatherDisplay:10.37,2013-10-02 13:52:00,
2013-10-02 09:02:00,52.2,50.8,30.10,West,275,1.0,3.0,95,0.00,,,0.00,WeatherDisplay:10.37,2013-10-02 14:02:00,
2013-10-02 09:12:00,53.4,50.6,30.10,WNW,282,1.0,4.0,90,0.00,,,0.00,WeatherDisplay:10.37,2013-10-02 14:12:00,
2013-10-02 09:22:00,55.2,48.8,30.10,West,272,2.0,3.0,79,0.00,,,0.00,WeatherDisplay:10.37,2013-10-02 14:22:00,
2013-10-02 09:32:00,57.1,49.3,30.10,WNW,286,1.0,3.0,75,0.00,,,0.00,WeatherDisplay:10.37,2013-10-02 14:32:00,
2013-10-02 09:42:00,59.1,49.0,30.10,SW,219,0.0,2.0,69,0.00,,,0.00,WeatherDisplay:10.37,2013-10-02 14:42:00,
2013-10-02 09:52:00,60.4,49.0,30.10,WSW,255,1.0,2.0,66,0.00,,,0.00,WeatherDisplay:10.37,2013-10-02 14:52:00,
2013-10-02 10:02:00,62.1,48.9,30.10,SW,222,2.0,3.0,62,0.00,,,0.00,WeatherDisplay:10.37,2013-10-02 15:02:00,
2013-10-02 10:12:00,63.8,50.5,30.10,SW,217,1.0,3.0,62,0.00,,,0.00,WeatherDisplay:10.37,2013-10-02 15:12:00,
2013-10-02 10:22:00,65.5,49.3,30.10,SE,145,3.0,5.0,56,0.00,,,0.00,WeatherDisplay:10.37,2013-10-02 15:22:00,
2013-10-02 10:32:00,66.6,49.9,30.10,SSE,166,2.0,4.0,55,0.00,,,0.00,WeatherDisplay:10.37,2013-10-02 15:32:00,
2013-10-02 10:42:00,67.2,47.9,30.10,SSE,164,2.0,6.0,50,0.00,,,0.00,WeatherDisplay:10.37,2013-10-02 15:42:00,
2013-10-02 10:52:00,67.6,48.9,30.10,SSE,149,2.0,5.0,51,0.00,,,0.00,WeatherDisplay:10.37,2013-10-02 15:52:00,
2013-10-02 11:02:00,68.4,49.0,30.10,South,174,3.0,6.0,50,0.00,,,0.00,WeatherDisplay:10.37,2013-10-02 16:02:00,
2013-10-02 11:12:00,69.1,48.0,30.10,SSE,156,2.0,6.0,47,0.00,,,0.00,WeatherDisplay:10.37,2013-10-02 16:12:00,
2013-10-02 11:22:00,69.6,46.7,30.10,South,173,0.0,5.0,44,0.00,,,0.00,WeatherDisplay:10.37,2013-10-02 16:22:00,
2013-10-02 11:32:00,70.2,46.0,30.10,SSE,154,1.0,7.0,42,0.00,,,0.00,WeatherDisplay:10.37,2013-10-02 16:32:00,
2013-10-02 11:42:00,70.9,46.6,30.10,SSE,157,1.0,5.0,42,0.00,,,0.00,WeatherDisplay:10.37,2013-10-02 16:42:00,
2013-10-02 11:52:00,71.4,45.2,30.10,SSW,195,2.0,4.0,39,0.00,,,0.00,WeatherDisplay:10.37,2013-10-02 16:52:00,
2013-10-02 12:02:00,72.0,45.6,30.10,SSW,194,2.0,6.0,39,0.00,,,0.00,WeatherDisplay:10.37,2013-10-02 17:02:00,
2013-10-02 12:12:00,72.1,45.8,30.10,South,191,2.0,5.0,39,0.00,,,0.00,WeatherDisplay:10.37,2013-10-02 17:12:00,
2013-10-02 12:22:00,72.9,46.4,30.10,SSE,167,2.0,5.0,39,0.00,,,0.00,WeatherDisplay:10.37,2013-10-02 17:22:00,
2013-10-02 12:32:00,73.4,46.9,30.07,SSW,200,3.0,6.0,39,0.00,,,0.00,WeatherDisplay:10.37,2013-10-02 17:32:00,
2013-10-02 12:42:00,74.2,47.0,30.07,SE,138,3.0,6.0,38,0.00,,,0.00,WeatherDisplay:10.37,2013-10-02 17:42:00,
2013-10-02 12:52:00,74.8,47.5,30.07,SW,231,3.0,7.0,38,0.00,,,0.00,WeatherDisplay:10.37,2013-10-02 17:52:00,
2013-10-02 13:02:00,75.4,48.0,30.07,SE,138,3.0,9.0,38,0.00,,,0.00,WeatherDisplay:10.37,2013-10-02 18:02:00,
2013-10-02 13:12:00,76.3,48.8,30.07,South,189,2.0,6.0,38,0.00,,,0.00,WeatherDisplay:10.37,2013-10-02 18:12:00,
2013-10-02 13:22:00,77.3,49.0,30.07,WNW,299,1.0,7.0,37,0.00,,,0.00,WeatherDisplay:10.37,2013-10-02 18:22:00,
2013-10-02 13:32:00,77.9,49.5,30.07,SSW,205,5.0,8.0,37,0.00,,,0.00,WeatherDisplay:10.37,2013-10-02 18:32:00,
2013-10-02 13:42:00,79.2,50.7,30.07,WNW,302,1.0,7.0,37,0.00,,,0.00,WeatherDisplay:10.37,2013-10-02 18:42:00,
2013-10-02 13:52:00,80.8,52.1,30.07,SW,231,3.0,6.0,37,0.00,,,0.00,WeatherDisplay:10.37,2013-10-02 18:52:00,
2013-10-02 14:02:00,81.3,52.5,30.07,WSW,258,3.0,8.0,37,0.00,,,0.00,WeatherDisplay:10.37,2013-10-02 19:02:00,
2013-10-02 14:12:00,81.0,52.2,30.07,SSW,192,6.0,9.0,37,0.00,,,0.00,WeatherDisplay:10.37,2013-10-02 19:12:00,
2013-10-02 14:22:00,82.8,53.1,30.07,South,190,3.0,7.0,36,0.00,,,0.00,WeatherDisplay:10.37,2013-10-02 19:22:00,
2013-10-02 14:32:00,82.6,53.7,30.07,SSW,201,2.0,9.0,37,0.00,,,0.00,WeatherDisplay:10.37,2013-10-02 19:32:00,
2013-10-02 14:42:00,82.8,53.1,30.07,SSW,197,3.0,7.0,36,0.00,,,0.00,WeatherDisplay:10.37,2013-10-02 19:42:00,
2013-10-02 14:52:00,84.8,54.9,30.07,South,177,2.0,7.0,36,0.00,,,0.00,WeatherDisplay:10.37,2013-10-02 19:52:00,
2013-10-02 15:02:00,85.8,55.8,30.07,SW,234,1.0,6.0,36,0.00,,,0.00,WeatherDisplay:10.37,2013-10-02 20:02:00,
2013-10-02 15:22:00,86.8,55.9,30.04,South,181,2.0,6.0,35,0.00,,,0.00,WeatherDisplay:10.37,2013-10-02 20:22:00,
2013-10-02 15:32:00,84.7,54.7,30.04,SSE,160,3.0,10.0,36,0.00,,,0.00,WeatherDisplay:10.37,2013-10-02 20:32:00,
2013-10-02 15:42:00,84.2,54.4,30.04,South,180,3.0,6.0,36,0.00,,,0.00,WeatherDisplay:10.37,2013-10-02 20:42:00,
2013-10-02 15:52:00,84.8,54.9,30.04,South,173,2.0,5.0,36,0.00,,,0.00,WeatherDisplay:10.37,2013-10-02 20:52:00,
2013-10-02 16:02:00,84.7,54.8,30.04,SSW,195,2.0,6.0,36,0.00,,,0.00,WeatherDisplay:10.37,2013-10-02 21:02:00,
2013-10-02 16:12:00,84.7,54.8,30.04,SW,235,2.0,4.0,36,0.00,,,0.00,WeatherDisplay:10.37,2013-10-02 21:12:00,
2013-10-02 16:22:00,81.5,52.7,30.04,SSE,161,2.0,6.0,37,0.00,,,0.00,WeatherDisplay:10.37,2013-10-02 21:22:00,
2013-10-02 16:32:00,79.2,50.6,30.04,South,179,1.0,4.0,37,0.00,,,0.00,WeatherDisplay:10.37,2013-10-02 21:32:00,
2013-10-02 16:42:00,77.0,49.4,30.04,South,169,1.0,2.0,38,0.00,,,0.00,WeatherDisplay:10.37,2013-10-02 21:42:00,
2013-10-02 16:52:00,76.1,48.6,30.04,SSE,153,2.0,5.0,38,0.00,,,0.00,WeatherDisplay:10.37,2013-10-02 21:52:00,
2013-10-02 17:02:00,74.9,47.6,30.04,SSE,151,2.0,6.0,38,0.00,,,0.00,WeatherDisplay:10.37,2013-10-02 22:02:00,
2013-10-02 17:12:00,73.9,46.7,30.04,SSE,154,2.0,6.0,38,0.00,,,0.00,WeatherDisplay:10.37,2013-10-02 22:12:00,
2013-10-02 17:22:00,72.9,46.4,30.04,SE,142,3.0,8.0,39,0.00,,,0.00,WeatherDisplay:10.37,2013-10-02 22:22:00,
2013-10-02 17:32:00,71.8,45.5,30.01,SSE,157,3.0,6.0,39,0.00,,,0.00,WeatherDisplay:10.37,2013-10-02 22:32:00,
2013-10-02 17:42:00,70.9,44.7,30.01,SE,140,1.0,3.0,39,0.00,,,0.00,WeatherDisplay:10.37,2013-10-02 22:42:00,
2013-10-02 17:52:00,68.9,42.9,30.01,SE,134,1.0,3.0,39,0.00,,,0.00,WeatherDisplay:10.37,2013-10-02 22:52:00,
2013-10-02 18:02:00,67.8,42.6,30.01,East,95,0.0,3.0,40,0.00,,,0.00,WeatherDisplay:10.37,2013-10-02 23:02:00,
2013-10-02 18:12:00,66.7,41.6,30.01,NE,37,0.0,1.0,40,0.00,,,0.00,WeatherDisplay:10.37,2013-10-02 23:12:00,
2013-10-02 18:22:00,65.6,41.3,30.01,NNE,18,1.0,2.0,41,0.00,,,0.00,WeatherDisplay:10.37,2013-10-02 23:22:00,
2013-10-02 18:32:00,64.6,41.6,30.04,NE,53,0.0,2.0,43,0.00,,,0.00,WeatherDisplay:10.37,2013-10-02 23:32:00,
2013-10-02 18:42:00,63.7,42.5,30.03,NE,56,0.0,0.0,46,0.00,,,0.00,WeatherDisplay:10.37,2013-10-02 23:42:00,
2013-10-02 18:52:00,62.7,43.3,30.01,NE,56,0.0,0.0,49,0.00,,,0.00,WeatherDisplay:10.37,2013-10-02 23:52:00,
2013-10-02 19:02:00,61.8,43.4,30.01,East,79,0.0,2.0,51,0.00,,,0.00,WeatherDisplay:10.37,2013-10-03 00:02:00,
2013-10-02 19:12:00,61.0,43.2,30.01,ENE,58,0.0,2.0,52,0.00,,,0.00,WeatherDisplay:10.37,2013-10-03 00:12:00,
2013-10-02 19:22:00,60.1,43.4,30.01,NNW,337,0.0,2.0,54,0.00,,,0.00,WeatherDisplay:10.37,2013-10-03 00:22:00,
2013-10-02 19:32:00,59.5,43.3,30.01,NNW,335,0.0,2.0,55,0.00,,,0.00,WeatherDisplay:10.37,2013-10-03 00:32:00,
2013-10-02 19:42:00,59.2,44.4,30.01,ENE,69,1.0,3.0,58,0.00,,,0.00,WeatherDisplay:10.37,2013-10-03 00:42:00,
2013-10-02 19:52:00,59.2,43.9,30.04,SE,138,0.0,3.0,57,0.00,,,0.00,WeatherDisplay:10.37,2013-10-03 00:52:00,
2013-10-02 20:02:00,59.2,43.9,30.04,ESE,121,0.0,2.0,57,0.00,,,0.00,WeatherDisplay:10.37,2013-10-03 01:02:00,
2013-10-02 20:12:00,59.0,43.3,30.04,SE,125,0.0,2.0,56,0.00,,,0.00,WeatherDisplay:10.37,2013-10-03 01:12:00,
2013-10-02 20:22:00,58.8,43.1,30.04,ENE,57,1.0,3.0,56,0.00,,,0.00,WeatherDisplay:10.37,2013-10-03 01:22:00,
2013-10-02 20:32:00,58.5,42.8,30.04,ENE,76,1.0,3.0,56,0.00,,,0.00,WeatherDisplay:10.37,2013-10-03 01:32:00,
2013-10-02 20:42:00,58.1,42.5,30.04,ESE,115,1.0,2.0,56,0.00,,,0.00,WeatherDisplay:10.37,2013-10-03 01:42:00,
2013-10-02 20:52:00,57.7,42.1,30.04,ESE,122,0.0,3.0,56,0.00,,,0.00,WeatherDisplay:10.37,2013-10-03 01:52:00,
2013-10-02 21:02:00,57.4,42.3,30.04,SSE,151,1.0,3.0,57,0.00,,,0.00,WeatherDisplay:10.37,2013-10-03 02:02:00,
2013-10-02 21:12:00,56.8,41.8,30.04,SSE,147,1.0,4.0,57,0.00,,,0.00,WeatherDisplay:10.37,2013-10-03 02:12:00,
2013-10-02 21:22:00,56.8,43.5,30.04,SE,146,3.0,6.0,61,0.00,,,0.00,WeatherDisplay:10.37,2013-10-03 02:22:00,
2013-10-02 21:32:00,58.5,42.8,30.01,SE,146,5.0,9.0,56,0.00,,,0.00,WeatherDisplay:10.37,2013-10-03 02:32:00,
2013-10-02 21:42:00,58.8,42.1,30.01,SSE,150,5.0,7.0,54,0.00,,,0.00,WeatherDisplay:10.37,2013-10-03 02:42:00,
2013-10-02 21:52:00,58.8,42.2,30.04,SE,146,3.0,7.0,54,0.00,,,0.00,WeatherDisplay:10.37,2013-10-03 02:52:00,
2013-10-02 22:02:00,58.8,42.2,30.01,SE,144,5.0,7.0,54,0.00,,,0.00,WeatherDisplay:10.37,2013-10-03 03:02:00,
2013-10-02 22:12:00,59.0,41.9,30.01,SE,139,3.0,9.0,53,0.00,,,0.00,WeatherDisplay:10.37,2013-10-03 03:12:00,
2013-10-02 22:22:00,58.8,41.7,30.01,SE,136,2.0,7.0,53,0.00,,,0.00,WeatherDisplay:10.37,2013-10-03 03:22:00,
2013-10-02 22:32:00,58.5,41.9,30.01,SSE,149,5.0,6.0,54,0.00,,,0.00,WeatherDisplay:10.37,2013-10-03 03:32:00,
2013-10-02 22:42:00,58.5,41.9,30.01,SSE,152,5.0,7.0,54,0.00,,,0.00,WeatherDisplay:10.37,2013-10-03 03:42:00,
2013-10-02 22:52:00,58.3,41.7,30.01,SSE,147,3.0,7.0,54,0.00,,,0.00,WeatherDisplay:10.37,2013-10-03 03:52:00,
2013-10-02 23:02:00,57.0,40.9,30.01,East,101,1.0,4.0,55,0.00,,,0.00,WeatherDisplay:10.37,2013-10-03 04:02:00,
2013-10-02 23:12:00,55.6,40.6,30.01,ENE,70,0.0,2.0,57,0.00,,,0.00,WeatherDisplay:10.37,2013-10-03 04:12:00,
2013-10-02 23:22:00,54.9,41.7,30.01,East,83,0.0,2.0,61,0.00,,,0.00,WeatherDisplay:10.37,2013-10-03 04:22:00,
2013-10-02 23:32:00,54.3,42.0,30.01,ESE,106,1.0,2.0,63,0.00,,,0.00,WeatherDisplay:10.37,2013-10-03 04:32:00,
2013-10-02 23:42:00,54.5,42.6,30.00,ESE,112,2.0,4.0,64,0.00,,,0.00,WeatherDisplay:10.37,2013-10-03 04:42:00,
2013-10-02 23:52:00,54.0,42.5,29.98,East,92,1.0,4.0,65,0.00,,,0.00,WeatherDisplay:10.37,2013-10-03 04:52:00,